User: anonymous   Login
Location: Unspecified
(0.0000°N, 0.0000°E)
Time: 22:13:39
(UTC+00:00)
Language:

AEROCUBE 6B - Orbit

View from above orbital plane
View from above orbital plane
View from above satellite
View from above satellite

Ground track
Ground track

The orbit data is extracted from the following two-line orbital elements,

1 40046U 14033AN  18343.85083591 +.00000316 +00000-0 +52947-4 0  9994
2 40046 097.7969 217.2199 0057051 346.8861 013.0862 14.75253245240181
Epoch (UTC): 09 December 2018 20:25:12
Eccentricity: 0.0057051
inclination: 97.7969°
perigee height: 604 km
apogee height: 684 km
right ascension of ascending node: 217.2199°
argument of perigee: 346.8861°
revolutions per day: 14.75253245
mean anomaly at epoch: 13.0862°
orbit number at epoch: 24018

The dashed part of the orbit path shows where the satellite is in the earth's shadow,  

DLR